Location: Chmeln�
(49.6483°N, 14.9871°E)
Time: 07:18:28
(UTC+00:00)

ERS-1 Rocket - Pass Details

Date: 18 September 2020
Orbit: 753 x 757 km, 98.5° (Epoch: 24 October)

Event Time Altitude Azimuth Distance (km) Brightness Sun altitude
Exits shadow 20:57:24 40° 315° (NW) 1,108 4.1 -33.1°
Drops below altitude 10° 21:00:50 10° 338° (NNW) 2,295 6.3 -33.4°
Sets 21:03:11 0° 343° (NNW) 3,226 7.2 -33.7°
